Regional Weather Roundup
Issued by NWS

Home | Current Version | Previous Version | Graphics & Text | Print | Product List | Glossary On
Versions: 1 2 3 4 5 6 7 8 9 10 11 12 13 14 15 16 17 18 19 20 21 22 23 24 25 26 27 28 29 30 31 32 33 34 35 36 37 38 39 40 41 42 43 44 45 46 47 48 49 50
000
ASUS43 KBIS 301320
RWRND

NORTH DAKOTA REGIONAL WEATHER ROUNDUP
NATIONAL WEATHER SERVICE BISMARCK ND
800 AM CDT SAT AUG 30 2014

NOTE: "FAIR" INDICATES FEW OR NO CLOUDS BELOW 12,000 FEET WITH NO
SIGNIFICANT WEATHER AND/OR OBSTRUCTIONS TO VISIBILITY.


NDZ001>003-009>011-017-301400-
NORTHWEST NORTH DAKOTA

CITY           SKY/WX    TMP DP  RH WIND       PRES   REMARKS
WILLISTON      CLEAR     57  51  80 SE9       29.87F
MINOT          CLEAR     49  47  93 SE6       29.93F
MINOT AFB      CLEAR     48  48  99 S5        29.93F
$$

NDZ018>021-031>035-040>046-301400-
SOUTHWEST NORTH DAKOTA

CITY           SKY/WX    TMP DP  RH WIND       PRES   REMARKS
BISMARCK       FOG       48  48 100 NE6       29.97F VSB<1/4
DICKINSON      MOCLDY    54  52  93 SE12      29.91F
GARRISON         N/A     53  52  96 SE7       29.94F
HETTINGER ARPT FOG       54  52  93 SE12      29.95S VSB 1/4
$$

NDZ004>008-012>016-024-026-027-054-301400-
NORTHEAST NORTH DAKOTA

CITY           SKY/WX    TMP DP  RH WIND       PRES   REMARKS
GRAND FORKS    SUNNY     50  48  93 N8        29.96R
GRND FRKS AFB  SUNNY     51  50  99 N7        29.97R
DEVILS LAKE    SUNNY     48  43  81 CALM      29.96R
$$

NDZ022-023-025-028>030-036>039-047>053-301400-
SOUTHEAST NORTH DAKOTA

CITY           SKY/WX    TMP DP  RH WIND       PRES   REMARKS
FARGO          CLOUDY    56  52  86 N10       29.92S
JAMESTOWN      SUNNY     51  49  92 N5        29.96S
$$



USA.gov is the U.S. government's official web portal to all federal, state and local government web resources and services.